Location: Newark
(40.4167°S, 176.3000°E)
Time: 08:33:02
(UTC+00:00)

LightSail 2 - Visible Passes

Search period start: 17 October 2019 00:00
Search period end: 27 October 2019 00:00
Orbit: 707 x 722 km, 24.0° (Epoch: 16 October)

Date Brightness Start Highest point End Pass type
(mag) Time Alt. Az. Time Alt. Az. Time Alt. Az.
18 Oct 7.4 16:52:22 10° NNW 16:54:08 12° N 16:55:53 10° NNE visible
19 Oct 7.4 15:55:40 10° N 15:56:47 11° N 15:57:55 10° NNE visible
20 Oct 7.3 16:42:00 10° NNW 16:44:05 12° N 16:46:10 10° NNE visible
21 Oct 7.2 15:46:04 12° N 15:46:44 12° N 15:48:44 10° NNE visible
22 Oct 7.2 16:32:11 10° NNW 16:34:00 12° N 16:35:48 10° NNE visible
23 Oct 7.2 15:36:50 12° N 15:36:50 12° N 15:38:42 10° NNE visible
25 Oct 7.4 15:27:48 10° N 15:27:48 10° N 15:28:00 10° N visible
